Погода Каменск-Шахтинский

Погода Каменск-Шахтинский : погода сейчас, прогноз погоды и архив. Всё, что Вы хотите узнать о погоде Каменск-Шахтинский!

Хотите узнать прогноз погоды Каменск-Шахтинский? Тогда Вам сюда: Погода Каменск-Шахтинский

Поиск расширенной информации на нашем сайте:

Полезная информация: Прочистка канализации в загородном доме "Servis 24".

Другие новости

Новости СМИ2

Главная страница сайта

Новости сайта

03.07.2017

Напоминаем, что на нашем специализированном сайте Метеоцентр.Азия вы можете получить высокодетализированные автоматические прогнозы погоды по пунктам России, СНГ и мира в авиационном формате (включающие направление и скорость ветра, видимость, явления погоды, количество и форму облачности, нижнюю и верхнюю границу облачности).

Рекомендуем: Дешевая недвижимость в Теплице свой уголок в Европе

Погода Каменск-Шахтинский - сегодня

Время (UTC), дата Ветер
(°,м/с) 
Видим.   Явления Облачность Т
(°С)
Тd
(°С)
f(%) Тe
(°С)
Pmin
(гПа)
dP
(гПа)
Po
(мм)
O2
(г/м3)
Тmin Tmax R s Состояние
почвы
09 20.01.18 160 (Ю) 20000 м    8/3 600 м кучево-дожд., средняя 
[Cb cap|Ac trans]
-0.8 -4.5 76 -3  1019.1  759  307           
12 20.01.18 140 (ЮВ) 20000 м    10/6 600 м кучево-дожд., средняя 
[Cb cap|Ac und]
-1.3 -4 82 -3  1018.9  -0.2  759  308           
15 20.01.18 130 (ЮВ) 20000 м    10/6 600 м кучево-дожд., средняя 
[Cb cap|Ac und]
-1.6 -3.7 86 -4  1018.1  -0.8  758  308    -0.7       
18 20.01.18 140 (ЮВ) 20000 м    10/10 600 м кучево-дожд. 
[Cb cap]
-0.8 -2.1 91 -4  1016.9  -1.2  757  306           
21 20.01.18 150 (ЮВ) 20000 м  {ливн. осадки} [диам. гололёда 0 мм]  6/6 600 м кучево-дожд. 
[Cb cap]
-0.2 -1.6 90 -3  1015.3  -1.6  756  305           
00 21.01.18 120 (ЮВ) 20000 м  {ливн. осадки}  6/6 600 м кучево-дожд. 
[Cb cap]
-0.3 -1.8 90 -3  1013.7  -1.5  755  305           
03 21.01.18 130 (ЮВ) 20000 м    8/6 600 м кучево-дожд., средняя 
[Cb cap|Ac trans]
+0.1 -1.7 88 -3  1011.6  -2.1  753  304  -1.7    0.4  равномерный
мокрый или
старый снег
100% 
06 21.01.18 130 (ЮВ) 20000 м    10/8 600 м кучево-дожд., средняя 
[Cb calv|Ac trans]
+0.7 -2.1 81 -2  1009.9  -1.7  752  302           
09 21.01.18 160 (Ю) 5{10}  20000 м    10/8 600 м кучево-дожд., средняя 
[Cb calv|Ac trans]
+1.4 -0.3 88 -1  1008.9  -1  751  301           
12 21.01.18 140 (ЮВ) 6{11}  20000 м    10/8 600 м кучево-дожд., средняя 
[Cb calv|Ac trans]
+1.1 -0.1 92 -2  1007.7  -1.1  750  301           
15 21.01.18 260 (З) 20000 м    10/5 600 м кучево-дожд., средняя 
[Cb calv|Ac trans]
+2.1 +0.4 88 1011  3.3  753  301    +2.4       
18 21.01.18 300 (СЗ) 20000 м    10/4 600 м кучево-дожд., средняя 
[Cb calv|Ac trans]
+0.1 -2.8 81 -2  1015.8  4.6  756  305           
21 21.01.18 310 (СЗ) 20000 м    9/0 средняя 
[Ac trans]
-1.4 -4.6 79 -3  1017.1  1.2  757  307           
00 22.01.18 тихо ()   20000 м    10/0 средняя 
[Ac und]
-4.1 -6.2 85 -4  1017.7  0.5  758  311           
03 22.01.18 160 (Ю) 20000 м    9/0 средняя 
[Ac und]
-5.3 -7.2 86 -5  1018.2  0.4  758  312  -5.3      равномерный
мокрый или
старый снег
100% 
06 22.01.18 090 (В) 20000 м    10/0 средняя 
[Ac und]
-4.7 -7.3 82 -6  1017.9  -0.3  758  312  -5.6         
09 22.01.18 070 (В) 20000 м    10/0 средняя 
[Ac und]
-2.9 -6 79 -5  1017.3  -0.6  757  309           
12 22.01.18 080 (В) 6-10{10}  10 км  слаб. ливневой снег  10/8 300 м кучево-дожд., средняя 
[Cb cap|Ac As]
-2.5 -4.7 85 -6  1015.3  -2.1  756  308           
15 22.01.18 080 (В) 20000 м  в посл. час ливневой снег  10/8 300 м кучево-дожд., средняя 
[Cb cap|Ac As]
-2.5 -4.2 88 -6  1015.2  -0.1  756  308    -2.4     
18 22.01.18 090 (В) 4{11}  20000 м  {ливн. осадки}  10/6 300 м кучево-дожд., средняя 
[Cb cap|Ac As]
-2.1 -3.9 87 -5  1014.5  -0.7  755  307           
21 22.01.18 100 (В) 5{10}  10 км  слаб. ливневой снег  10/10 300 м кучево-дожд. 
[Cb cap]
-2.2 -3.1 94 -6  1012.9  -1.5  754  307           
00 23.01.18 100 (В) 6-10{10}  10 км  слаб. ливневой снег  10/10 300 м кучево-дожд. 
[Cb cap]
-2 -2.9 94 -6  1011.5  -1.4  753  306           
03 23.01.18 110 (В) 2000 м  ливневой снег  10/10 300 м кучево-дожд. 
[Cb cap]
-2 -2.9 94 -6  1010.9  -0.6  753  306  -2.5    0.6     
06 23.01.18 100 (В) 5{10}  20000 м  слаб. ливневой снег [диам. гололёда 1 мм]  10/6 300 м кучево-дожд., средняя 
[Cb cap|Ac und]
-2.4 -3.6 91 -6  1011.2  0.3  753  306           
09 23.01.18 090 (В) 5{10}  10 км  {ливн. осадки} [диам. гололёда 1 мм]  10/8 300 м кучево-дожд., средняя 
[Cb cap|Ac und]
-2.9 -4.5 89 -6  1011.4  0.3  753  307           
Время (UTC), дата Ветер
(°,м/с) 
Видим.   Явления Облачность Т
(°С)
Тd
(°С)
f(%) Тe
(°С)
Pmin
(гПа)
dP
(гПа)
Po
(мм)
O2
(г/м3)
Тmin Tmax R s Состояние
почвы

Для получения пояснительной информации подведите курсор к названию столбца.

ПОГОДА Каменск-Шахтинский - архив

Всё, что Вы хотите узнать о погоде Каменск-Шахтинский - удобно и подробно!

Выберите нужную дату (начиная с 1 января 2015* года) и нажмите кнопку "Найти".
Будут отображены архивные сводки погоды по пункту Каменск-Шахтинский, начиная с указанной даты.


Отображать данные в формате CSV (для использования в таблицах Excel)


Внимание! Наш архив погоды предназначен исключительно для личного некоммерческого использования в познавательных целях. Если Вам необходимы официальные справки о состоянии погоды (для производственных, юридических, коммерческих и т.п. целей), обращайтесь в органы Росгидромета.

*Примечание: данная дата относится к архиву по метеостанциям СССР (Россия, СНГ, Балтия).
Архив по метеостанциям Зарубежной Европы и Азии (кроме Китая) хранится 10 дней, по другим регионам земного шара (Китай, Африка, Америка, Австралия, Океания) - 1 день.

Каменск-Шахтинский - район местоположения метеостанции


Название, широта, долгота, высота метеостанции:
Каменск-Шахтинский 48.3°ш. 40.3°д. 51 м над ур. моря [Российская Федерация]

Дополнительная информация

В oтличие oт бoльшинства пoгoдных сайтoв мы публикуем пoдрoбную метеoинфoрмацию в детальнoм прoфессиoнальнoм фoрмате.

Характеристики температуры и влажнoсти вoздуха измеряются на высoте 2 м в тени вдали oт зданий и деревьев.
Скoрoсть ветра измеряется на высoте 10 м (на урoвне рoста челoвека скoрoсть ветра ниже в 1.5-2 раза). Если метеoстанция нахoдится в гoрoде или в лесу, тo скoрoсть ветра занижена на 2-4 м/с пo сравнению с oткрытым местoм. Скoрoсть ветра над акватoриями крупных рек и oзёр, а также на вершинах хoлмoв на 2-5 м/с выше, чем в oбычных услoвиях.
Атмoсфернoе давление в разных тoчках местнoсти мoжет значительнo oтличаться oт давления на метеoстанции, в зависимoсти oт услoвий рельефа (при пoдъёме на 10 м давление пoнижается примернo на 1 мм рт.ст.).